St.-Jovite, Quebec

8:42 AM EDT on March 24, 2017 (GMT -0400)
St.-Jovite

Weather History for CWJT - June, 2014

Change the Weather History Date:

Friday, June 6, 2014

  Actual Average Record
Temperature  
Mean Temperature 62 °F -  
Max Temperature 72 °F - - ()
Min Temperature 51 °F - - ()
Degree Days  
Heating Degree Days 4    
Growing Degree Days 12 (Base 50)    
Moisture  
Dew Point 53 °F    
Average Humidity 80    
Maximum Humidity 100    
Minimum Humidity 49    
Precipitation  
Precipitation 0.00 in - - ()
Sea Level Pressure  
Sea Level Pressure 29.85 in    
Wind  
Wind Speed 1 mph ()    
Max Wind Speed 6 mph    
Max Gust Speed -    
T = Trace of Precipitation, MM = Missing Value Source: Averaged Metar Reports

Daily Weather History Graph

Daily Weather History Graph

Search for Another Location

Airport or City:

Trip Planner

Search our weather history database for the weather conditions in past years. The results will help you decide how hot, cold, wet, or windy it might be!

Date:

Astronomy

Jun. 06, 2014 Rise Set
Actual Time 5:08 AM EDT 8:45 PM EDT
Civil Twilight 4:30 AM EDT 9:23 PM EDT
Nautical Twilight 3:39 AM EDT 10:14 PM EDT
Astronomical Twilight 2:31 AM EDT 11:23 PM EDT
Moon 1:41 PM EDT (6/6) 1:20 AM EDT (6/6)
Length of Visible Light 16h 53m
Length of Day
15h 37m
First Quarter, 58% of the Moon is Illuminated
Jun 6
First Quarter
Jun 13
Full
Jun 19
Last Quarter
Jun 27
New
Jul 5
First Quarter

Hourly Weather History & Observations

Time (EDT) Temp. Dew Point Humidity Pressure Visibility Wind Dir Wind Speed Gust Speed Precip Events Conditions
12:00 AM 53.2 °F 52.5 °F 97% 29.79 in - Calm Calm - N/A   Unknown
1:00 AM 53.6 °F 52.7 °F 97% 29.80 in - Calm Calm - N/A   Unknown
2:00 AM 54 °F 53 °F 95% 29.80 in - Calm Calm - -  
2:00 AM 53.8 °F 53.1 °F 97% 29.80 in - Calm Calm - N/A   Unknown
3:00 AM 53.6 °F 52.9 °F 97% 29.79 in - Calm Calm - N/A   Unknown
4:00 AM 52.0 °F 51.1 °F 97% 29.80 in - NE 1.2 mph - N/A   Unknown
5:00 AM 52.2 °F 51.4 °F 97% 29.81 in - ENE 1.2 mph - N/A   Unknown
6:00 AM 53.2 °F 52.5 °F 97% 29.83 in - NW 1.2 mph - N/A   Unknown
7:00 AM 52.7 °F 52.7 °F 100% 29.86 in - West 1.2 mph - N/A   Unknown
8:00 AM 55 °F 53 °F 88% 29.86 in - WNW 1.2 mph - -  
8:00 AM 55.2 °F 52.5 °F 91% 29.86 in - WNW 1.2 mph - N/A   Unknown
9:00 AM 56.7 °F 52.7 °F 87% 29.86 in - WNW 2.3 mph - N/A   Unknown
10:00 AM 58.5 °F 52.7 °F 81% 29.87 in - WNW 3.5 mph - N/A   Unknown
11:00 AM 61.2 °F 53.8 °F 77% 29.88 in - NNW 3.5 mph - N/A   Unknown
12:00 PM 61.9 °F 53.4 °F 74% 29.88 in - West 4.6 mph - N/A   Unknown
1:00 PM 66.6 °F 55.0 °F 66% 29.87 in - West 5.8 mph - N/A   Unknown
2:00 PM 68 °F 55 °F 54% 29.86 in - WNW 4.6 mph - -  
2:00 PM 68.2 °F 55.0 °F 63% 29.86 in - WNW 4.6 mph - N/A   Unknown
3:00 PM 69.8 °F 54.7 °F 59% 29.86 in - WNW 3.5 mph - N/A   Unknown
4:00 PM 69.8 °F 55.4 °F 60% 29.86 in - NNW 2.3 mph - N/A   Unknown
5:00 PM 70.7 °F 52.9 °F 53% 29.86 in - West 4.6 mph - N/A   Unknown
6:00 PM 68.4 °F 54.3 °F 61% 29.86 in - NW 1.2 mph - N/A   Unknown
7:00 PM 68.4 °F 52.7 °F 57% 29.87 in - NW 2.3 mph - N/A   Unknown
8:00 PM 67 °F 52 °F 49% 29.88 in - NW 2.3 mph - -  
9:00 PM 58.8 °F 53.6 °F 83% 29.90 in - ENE 1.2 mph - N/A   Unknown
10:00 PM 54.5 °F 52.3 °F 92% 29.91 in - East 1.2 mph - N/A   Unknown
11:00 PM 52.5 °F 51.1 °F 95% 29.93 in - NE 1.2 mph - N/A   Unknown